When you browse on this site, cookies collect data to enhance your experience and personalize the content and advertising you see.
Visit our Privacy Policy to learn more. By continuing to use the site, you agree to this use of cookies and data.
  • In Czech Republic
  • List of Countries
  • For 7 days
  • Water Temperature
  • Satellite Maps
  • Weather Map
  • Weather Widgets
  • user-avatar
    Login

    Hourly Weather Milford

    Today, 17 February, Sunday

    Time Temperature Precipitation Wind Pressure Humidity
    00:00 -4°C° 0 mm 4 mps 762 mmHg 64%
    01:00 -6°C° 0 mm 5 mps 762 mmHg 64%
    02:00 -5°C° 0 mm 4 mps 762 mmHg 64%
    03:00 -5°C° 0 mm 4 mps 762 mmHg 63%
    04:00 -5°C° 0 mm 4 mps 762 mmHg 63%
    05:00 -5°C° 0 mm 3 mps 763 mmHg 62%
    06:00 -5°C° 0 mm 3 mps 763 mmHg 62%
    07:00 -5°C° 0 mm 3 mps 763 mmHg 62%
    08:00 -3°C° 0 mm 2 mps 764 mmHg 56%
    09:00 0°C° 0 mm 1 mps 764 mmHg 50%
    10:00 +1°C° 0 mm 1 mps 764 mmHg 44%
    11:00 +2°C° 0 mm 1 mps 764 mmHg 42%
    12:00 +3°C° 0 mm 1 mps 764 mmHg 40%
    13:00 +4°C° 0 mm 1 mps 764 mmHg 38%
    14:00 +4°C° 0 mm 1 mps 763 mmHg 39%
    15:00 +3°C° 0 mm 2 mps 763 mmHg 40%
    16:00 +2°C° 0 mm 2 mps 763 mmHg 42%
    17:00 +2°C° 0 mm 2 mps 762 mmHg 47%
    18:00 +1°C° 0 mm 2 mps 762 mmHg 51%
    19:00 +1°C° 0 mm 2 mps 762 mmHg 56%
    20:00 +1°C° 0.2 mm 2 mps 762 mmHg 64%
    21:00 -1°C° 0.2 mm 3 mps 762 mmHg 71%
    22:00 -1°C° 0.2 mm 3 mps 762 mmHg 79%
    23:00 -1°C° 0.5 mm 3 mps 761 mmHg 81%

    Tomorrow, 18 February, Monday

    Time Temperature Precipitation Wind Pressure Humidity
    00:00 +1°C° 0.5 mm 2 mps 761 mmHg 83%
    01:00 +1°C° 0.5 mm 2 mps 760 mmHg 86%
    02:00 0°C° 0.3 mm 3 mps 759 mmHg 87%
    03:00 0°C° 0.3 mm 3 mps 758 mmHg 89%
    04:00 +1°C° 0.3 mm 3 mps 757 mmHg 91%
    05:00 +1°C° 1.2 mm 3 mps 757 mmHg 92%
    06:00 +1°C° 1.2 mm 3 mps 757 mmHg 94%
    07:00 +1°C° 1.2 mm 3 mps 756 mmHg 96%
    08:00 +1°C° 0.4 mm 3 mps 756 mmHg 95%
    09:00 +1°C° 0.4 mm 3 mps 755 mmHg 95%
    10:00 +2°C° 0.4 mm 2 mps 755 mmHg 94%
    11:00 +2°C° 0 mm 2 mps 755 mmHg 93%
    12:00 +3°C° 0 mm 2 mps 755 mmHg 91%
    13:00 +4°C° 0 mm 1 mps 755 mmHg 90%
    14:00 +4°C° 0 mm 2 mps 755 mmHg 88%
    15:00 +3°C° 0 mm 3 mps 756 mmHg 87%
    16:00 +4°C° 0 mm 4 mps 757 mmHg 85%
    17:00 +1°C° 0 mm 5 mps 758 mmHg 81%
    18:00 0°C° 0 mm 5 mps 760 mmHg 78%
    19:00 -2°C° 0 mm 6 mps 762 mmHg 75%
    20:00 -3°C° 0 mm 6 mps 763 mmHg 74%
    21:00 -4°C° 0 mm 6 mps 764 mmHg 74%
    22:00 -5°C° 0 mm 6 mps 765 mmHg 74%
    23:00 -6°C° 0 mm 6 mps 766 mmHg 70%

    Day after tomorrow, 19 February, Tuesday

    Time Temperature Precipitation Wind Pressure Humidity
    00:00 -8°C° 0 mm 6 mps 767 mmHg 67%
    01:00 -9°C° 0 mm 6 mps 768 mmHg 63%
    02:00 -9°C° 0 mm 6 mps 769 mmHg 62%
    03:00 -10°C° 0 mm 6 mps 769 mmHg 61%
    04:00 -10°C° 0 mm 6 mps 770 mmHg 60%
    05:00 -10°C° 0 mm 5 mps 771 mmHg 60%
    06:00 -10°C° 0 mm 5 mps 771 mmHg 59%
    07:00 -10°C° 0 mm 5 mps 772 mmHg 59%
    08:00 -8°C° 0 mm 4 mps 773 mmHg 55%
    09:00 -8°C° 0 mm 4 mps 773 mmHg 52%
    10:00 -7°C° 0 mm 4 mps 774 mmHg 49%
    11:00 -5°C° 0 mm 4 mps 774 mmHg 47%
    12:00 -4°C° 0 mm 4 mps 774 mmHg 45%
    13:00 -3°C° 0 mm 4 mps 774 mmHg 43%
    14:00 -3°C° 0 mm 4 mps 773 mmHg 43%
    15:00 -2°C° 0 mm 3 mps 773 mmHg 44%
    16:00 -1°C° 0 mm 3 mps 773 mmHg 44%
    17:00 -2°C° 0 mm 3 mps 774 mmHg 48%
    18:00 -4°C° 0 mm 3 mps 774 mmHg 51%
    19:00 -5°C° 0 mm 3 mps 775 mmHg 55%
    20:00 -5°C° 0 mm 3 mps 775 mmHg 56%
    21:00 -5°C° 0 mm 3 mps 775 mmHg 58%
    22:00 -6°C° 0 mm 3 mps 776 mmHg 59%
    23:00 -6°C° 0 mm 3 mps 776 mmHg 59%

    20 February, Wednesday

    Time Temperature Precipitation Wind Pressure Humidity
    00:00 -6°C° 0 mm 3 mps 776 mmHg 58%
    01:00 -7°C° 0 mm 4 mps 776 mmHg 57%
    02:00 -7°C° 0 mm 3 mps 776 mmHg 57%
    03:00 -7°C° 0 mm 3 mps 776 mmHg 57%
    04:00 -7°C° 0 mm 3 mps 776 mmHg 57%
    05:00 -6°C° 0 mm 2 mps 776 mmHg 57%
    06:00 -6°C° 0 mm 2 mps 776 mmHg 58%
    07:00 -4°C° 0 mm 1 mps 776 mmHg 58%
    08:00 -3°C° 0 mm 1 mps 776 mmHg 54%
    09:00 -2°C° 0 mm 1 mps 776 mmHg 51%
    10:00 -1°C° 0 mm 1 mps 776 mmHg 47%
    11:00 -2°C° 0 mm 2 mps 775 mmHg 47%
    12:00 -2°C° 0 mm 2 mps 774 mmHg 46%
    13:00 -2°C° 0 mm 3 mps 774 mmHg 46%
    14:00 -2°C° 0 mm 3 mps 773 mmHg 49%
    15:00 -2°C° 0 mm 3 mps 773 mmHg 53%
    16:00 -2°C° 0 mm 3 mps 773 mmHg 56%
    17:00 -2°C° 0.1 mm 3 mps 772 mmHg 62%
    18:00 -2°C° 0.1 mm 4 mps 772 mmHg 67%
    19:00 -2°C° 0.1 mm 5 mps 771 mmHg 73%
    20:00 -2°C° 0.2 mm 5 mps 770 mmHg 77%
    21:00 -1°C° 0.2 mm 5 mps 770 mmHg 81%
    22:00 -1°C° 0.2 mm 5 mps 769 mmHg 85%
    23:00 0°C° 0.4 mm 5 mps 767 mmHg 88%

    21 February, Thursday

    Time Temperature Precipitation Wind Pressure Humidity
    00:00 0°C° 0.4 mm 5 mps 766 mmHg 91%
    01:00 +1°C° 0.4 mm 4 mps 765 mmHg 94%
    02:00 +2°C° 0.8 mm 3 mps 763 mmHg 95%
    03:00 +4°C° 0.8 mm 2 mps 762 mmHg 96%
    04:00 +5°C° 0.8 mm 1 mps 761 mmHg 98%
    05:00 +5°C° 0.5 mm 1 mps 760 mmHg 98%
    06:00 +5°C° 0.5 mm 1 mps 759 mmHg 98%
    07:00 +5°C° 0.5 mm 1 mps 759 mmHg 98%
    08:00 +6°C° 0 mm 2 mps 759 mmHg 94%
    09:00 +6°C° 0 mm 4 mps 759 mmHg 90%
    10:00 +7°C° 0 mm 5 mps 759 mmHg 86%
    11:00 +8°C° 0 mm 5 mps 759 mmHg 80%
    12:00 +9°C° 0 mm 5 mps 759 mmHg 74%
    13:00 +10°C° 0 mm 5 mps 759 mmHg 67%
    14:00 +9°C° 0 mm 5 mps 760 mmHg 68%
    15:00 +8°C° 0 mm 5 mps 760 mmHg 69%
    16:00 +8°C° 0 mm 4 mps 761 mmHg 70%
    17:00 +6°C° 0 mm 4 mps 762 mmHg 73%
    18:00 +5°C° 0 mm 4 mps 763 mmHg 76%
    19:00 +3°C° 0 mm 4 mps 764 mmHg 79%
    20:00 +3°C° 0 mm 4 mps 764 mmHg 78%
    21:00 +1°C° 0 mm 4 mps 765 mmHg 77%
    22:00 0°C° 0 mm 4 mps 766 mmHg 76%
    23:00 +1°C° 0 mm 3 mps 766 mmHg 75%

    22 February, Friday

    Time Temperature Precipitation Wind Pressure Humidity
    00:00 +2°C° 0 mm 2 mps 765 mmHg 74%
    01:00 +3°C° 0 mm 1 mps 765 mmHg 73%
    02:00 +2°C° 0 mm 2 mps 766 mmHg 74%
    03:00 +2°C° 0 mm 2 mps 766 mmHg 74%
    04:00 +2°C° 0 mm 2 mps 766 mmHg 75%
    05:00 +1°C° 0 mm 2 mps 767 mmHg 75%
    06:00 +1°C° 0 mm 2 mps 767 mmHg 76%
    07:00 +1°C° 0 mm 2 mps 767 mmHg 77%
    08:00 +3°C° 0 mm 1 mps 767 mmHg 74%
    09:00 +4°C° 0 mm 1 mps 767 mmHg 71%
    10:00 +4°C° 0 mm 1 mps 767 mmHg 69%
    11:00 +5°C° 0 mm 1 mps 767 mmHg 67%
    12:00 +4°C° 0 mm 0 mps 767 mmHg 66%
    13:00 +4°C° 0 mm 0 mps 767 mmHg 64%
    14:00 +5°C° 0 mm 0 mps 767 mmHg 64%
    15:00 +5°C° 0 mm 0 mps 766 mmHg 63%
    16:00 +5°C° 0 mm 0 mps 766 mmHg 63%
    17:00 +4°C° 0 mm 0 mps 767 mmHg 67%
    18:00 +4°C° 0 mm 1 mps 767 mmHg 71%
    19:00 +3°C° 0 mm 1 mps 767 mmHg 74%
    20:00 +3°C° 0 mm 1 mps 767 mmHg 76%
    21:00 +3°C° 0 mm 1 mps 768 mmHg 77%
    22:00 +3°C° 0 mm 1 mps 768 mmHg 78%
    23:00 +1°C° 0 mm 0 mps 768 mmHg 79%
    Show more